KC5AYO Weather Reports


Display with metric or nautical units.
time (UTC)temp
F
wind
direction
speed
MPH
gust
MPH
rain 1hr
in
rain 24hr
in
rain mn
in
humidity
%
barometer
mb
20260507043032 44 315 0.0 0.0 0.00 0.21 0.00 91 1015.0
20260507042529 44 315 0.0 0.0 0.00 0.21 0.00 91 1015.1
20260507042029 44 315 0.0 0.0 0.00 0.21 0.00 90 1015.1
20260507041529 44 315 0.0 0.0 0.00 0.21 0.00 90 1015.1
20260507041028 44 315 0.0 0.0 0.00 0.21 0.00 89 1015.1
20260507040527 44 315 0.0 0.0 0.00 0.21 0.00 89 1015.1
20260507040027 45 315 0.0 0.0 0.00 0.48 0.21 89 1015.1
20260507035525 45 315 0.0 0.0 0.00 0.48 0.21 89 1015.0
20260507035026 45 315 0.0 0.0 0.00 0.48 0.21 89 1015.0
20260507034526 45 315 0.0 0.0 0.00 0.48 0.21 89 1015.0
20260507034026 45 315 0.0 0.0 0.00 0.48 0.21 89 1015.1
20260507033525 45 315 0.0 0.0 0.00 0.48 0.21 89 1015.0
20260507033025 45 315 0.0 0.0 0.00 0.48 0.21 89 1015.1
20260507032524 45 315 0.0 0.0 0.00 0.48 0.21 89 1015.0
20260507032025 45 315 0.0 0.0 0.00 0.48 0.21 89 1015.1
20260507031524 45 315 0.0 0.0 0.00 0.48 0.21 89 1015.1
20260507031027 46 315 0.0 0.0 0.00 0.48 0.21 89 1015.0
20260507030523 46 315 0.0 0.0 0.00 0.48 0.21 89 1015.0
20260507030023 46 315 0.0 0.0 0.00 0.73 0.21 88 1015.0
20260507025522 46 315 0.0 0.0 0.00 0.73 0.21 88 1014.9
20260507025022 46 315 0.0 0.0 0.00 0.73 0.21 87 1014.9
20260507024524 46 315 0.0 0.0 0.00 0.73 0.21 86 1014.9
20260507024025 46 315 0.0 0.0 0.00 0.73 0.21 86 1014.7
20260507023521 47 315 0.0 0.0 0.00 0.73 0.21 86 1014.7
20260507023021 47 315 0.0 0.0 0.00 0.73 0.21 85 1014.7
20260507022521 47 315 0.0 0.0 0.00 0.73 0.21 85 1014.7
20260507022022 47 315 0.0 0.0 0.00 0.73 0.21 84 1014.5
20260507021522 47 315 0.0 0.0 0.00 0.73 0.21 82 1014.7
20260507021020 48 315 0.0 0.0 0.00 0.73 0.21 80 1014.6
20260507020519 48 315 0.0 0.0 0.00 0.73 0.21 78 1014.5
20260507020019 48 315 0.0 0.0 0.00 0.83 0.21 77 1014.6
20260507015518 48 315 0.0 0.0 0.00 0.83 0.21 76 1014.4
20260507015018 49 315 0.0 0.0 0.00 0.83 0.21 77 1014.4
20260507014526 49 315 0.0 0.0 0.00 0.83 0.21 76 1014.4
20260507014017 49 315 0.0 0.0 0.00 0.83 0.21 76 1014.4
20260507013516 49 315 0.0 0.0 0.00 0.83 0.21 76 1014.3
20260507013017 50 315 0.0 0.0 0.00 0.83 0.21 76 1014.3
20260507012516 50 315 0.0 0.0 0.00 0.83 0.21 75 1014.3
20260507012019 50 315 0.0 0.0 0.00 0.83 0.21 74 1014.2
20260507011516 51 315 0.0 0.0 0.00 0.83 0.21 72 1014.2
20260507011015 51 315 0.0 0.0 0.00 0.83 0.21 71 1014.1
20260507010514 51 315 0.0 0.0 0.00 0.83 0.21 71 1014.0
20260507010014 52 315 0.0 0.0 0.00 0.94 0.21 68 1014.0
20260507005514 52 315 0.0 0.0 0.00 0.94 0.21 67 1013.9
20260507005017 53 315 0.0 0.0 0.00 0.94 0.21 64 1014.0
20260507004517 54 315 0.0 0.0 0.00 0.94 0.21 61 1013.9
20260507004018 54 315 0.0 0.0 0.00 0.94 0.21 61 1014.0
20260507003513 55 315 0.0 2.0 0.00 0.94 0.21 59 1014.0
20260507003013 55 315 0.0 2.0 0.00 0.94 0.21 57 1014.0
20260507002512 56 325 0.0 2.0 0.00 0.94 0.21 55 1014.0
20260507002013 56 321 0.0 2.0 0.00 0.94 0.21 55 1013.9
20260507001516 56 321 0.0 3.0 0.00 0.94 0.21 54 1014.0
20260507001017 57 343 0.0 3.0 0.00 0.94 0.21 53 1013.9
20260507000511 57 305 0.0 2.0 0.00 0.94 0.21 53 1013.7
20260507000011 57 315 0.0 2.0 0.00 1.06 0.21 52 1013.8
20260506235511 58 320 0.0 2.0 0.00 1.06 0.21 51 1013.6
20260506235010 58 328 0.0 2.0 0.00 1.06 0.21 51 1013.5
20260506234514 58 321 0.0 2.0 0.00 1.06 0.21 51 1013.5
20260506234011 58 311 0.0 2.0 0.00 1.06 0.21 52 1013.5
20260506233510 57 198 0.0 2.0 0.00 1.06 0.21 54 1013.4
20260506233010 57 327 0.0 3.0 0.00 1.06 0.21 56 1013.5
20260506232509 57 249 0.0 3.0 0.00 1.06 0.21 55 1013.5
20260506232010 57 310 0.0 2.0 0.00 1.06 0.21 56 1013.5
20260506231510 57 321 0.0 2.0 0.00 1.06 0.21 55 1013.4
20260506231011 57 338 0.0 2.0 0.00 1.06 0.21 56 1013.5
20260506230508 58 320 0.0 2.0 0.00 1.06 0.21 54 1013.5
20260506230008 58 31 0.0 4.0 0.00 1.41 0.21 55 1013.4
20260506225510 58 302 0.0 4.0 0.00 1.41 0.21 52 1013.4
20260506225008 58 31 0.0 3.0 0.00 1.41 0.21 56 1013.3
20260506224508 58 303 0.0 4.0 0.00 1.41 0.21 50 1013.3
20260506224008 58 317 0.0 4.0 0.00 1.41 0.21 50 1013.3
20260506223508 58 311 0.0 4.0 0.00 1.41 0.21 52 1013.3
20260506223008 58 351 0.0 4.0 0.00 1.41 0.21 50 1013.6
20260506222508 58 9 1.0 4.0 0.00 1.41 0.21 49 1013.5
20260506222008 58 288 0.0 4.0 0.00 1.41 0.21 49 1013.5
20260506221507 58 324 1.0 4.0 0.00 1.41 0.21 48 1013.5
20260506221012 58 325 0.0 3.0 0.00 1.41 0.21 52 1013.4
20260506220508 58 355 0.0 3.0 0.00 1.41 0.21 47 1013.4
20260506220016 59 11 1.0 3.0 0.00 1.48 0.21 48 1013.5
20260506215511 59 328 0.0 2.0 0.00 1.48 0.21 48 1013.5
20260506215006 59 311 0.0 2.0 0.00 1.48 0.21 48 1013.5
20260506214507 59 286 0.0 2.0 0.00 1.48 0.21 51 1013.5
20260506214007 59 329 0.0 2.0 0.00 1.48 0.21 50 1013.5
20260506213506 59 314 0.0 2.0 0.00 1.48 0.21 49 1013.3
20260506213006 58 308 0.0 3.0 0.00 1.48 0.21 48 1013.6
20260506212506 59 282 0.0 3.0 0.00 1.48 0.21 50 1013.5
20260506212006 59 351 0.0 2.0 0.00 1.48 0.21 48 1013.4
20260506211508 59 326 0.0 4.0 0.00 1.48 0.21 48 1013.5
20260506211005 59 271 0.0 4.0 0.00 1.48 0.21 48 1013.4
20260506210505 59 339 0.0 2.0 0.00 1.48 0.21 52 1013.3
20260506210009 59 317 0.0 4.0 0.00 1.48 0.21 45 1013.3
20260506205504 59 338 0.0 4.0 0.00 1.48 0.21 46 1013.3
20260506205004 59 350 0.0 3.0 0.00 1.48 0.21 46 1013.2
20260506204504 59 275 0.0 2.0 0.00 1.48 0.21 47 1013.3
20260506204002 59 17 0.0 2.0 0.00 1.48 0.21 48 1013.3
20260506203501 59 300 0.0 2.0 0.00 1.48 0.21 49 1013.3
20260506203002 58 295 0.0 3.0 0.00 1.48 0.21 52 1013.4
20260506202502 59 331 0.0 3.0 0.00 1.48 0.21 55 1013.3
20260506202002 59 297 0.0 3.0 0.00 1.48 0.21 51 1013.3
20260506201600 58 229 0.0 2.0 0.00 1.48 0.21 50 1013.2
20260506201100 58 311 0.0 3.0 0.00 1.48 0.21 51 1013.3
20260506200600 58 336 0.0 3.0 0.00 1.48 0.21 49 1013.5
20260506200059 58 335 0.0 3.0 0.00 1.48 0.21 54 1013.4
20260506195558 58 355 1.0 3.0 0.00 1.49 0.21 50 1013.4
20260506195058 58 336 0.0 3.0 0.00 1.49 0.21 48 1013.4
20260506194633 58 276 0.0 2.0 0.00 1.49 0.21 57 1013.5
20260506194101 57 349 0.0 2.0 0.00 1.49 0.21 53 1013.5
20260506193557 57 346 0.0 2.0 0.00 1.49 0.21 54 1013.4
20260506193105 57 350 0.0 3.0 0.00 1.49 0.21 52 1013.5
20260506192556 57 346 1.0 3.0 0.00 1.49 0.21 50 1013.4
20260506192058 57 140 0.0 3.0 0.00 1.49 0.21 53 1013.3
20260506191556 57 360 0.0 4.0 0.00 1.49 0.21 51 1013.5
20260506191055 57 309 0.0 3.0 0.00 1.49 0.21 53 1013.4
20260506190554 58 9 0.0 3.0 0.00 1.49 0.21 58 1013.5
20260506190057 57 257 0.0 2.0 0.00 1.49 0.21 57 1013.5
20260506185553 57 5 0.0 2.0 0.00 1.52 0.21 57 1013.4
20260506185052 57 276 0.0 1.0 0.00 1.52 0.21 57 1013.3
20260506184552 57 143 0.0 1.0 0.00 1.52 0.21 68 1013.4
20260506184051 57 77 0.0 2.0 0.00 1.52 0.21 60 1013.4
20260506183551 56 78 0.0 2.0 0.00 1.52 0.21 59 1013.5
20260506183051 56 14 0.0 3.0 0.00 1.52 0.21 60 1013.3
20260506182551 56 329 0.0 3.0 0.00 1.52 0.21 58 1013.2
20260506182050 56 311 0.0 2.0 0.00 1.52 0.21 58 1013.1
20260506181550 56 331 0.0 2.0 0.00 1.52 0.21 63 1013.2
20260506181050 56 197 0.0 2.0 0.00 1.52 0.21 58 1013.2
20260506180551 56 282 0.0 2.0 0.00 1.52 0.21 60 1013.3
20260506180100 56 338 0.0 2.0 0.00 1.52 0.21 59 1013.5
20260506175550 56 327 0.0 2.0 0.00 1.64 0.21 57 1013.4
20260506175047 56 342 0.0 2.0 0.00 1.64 0.21 59 1013.5
20260506174547 55 339 0.0 2.0 0.00 1.64 0.21 58 1013.5
20260506174048 55 335 0.0 2.0 0.00 1.64 0.21 60 1013.6
20260506173547 56 305 0.0 3.0 0.00 1.64 0.21 60 1013.7
20260506173046 56 360 0.0 2.0 0.00 1.64 0.21 59 1013.7
20260506172546 55 339 0.0 2.0 0.00 1.64 0.21 60 1013.7
20260506172145 56 318 0.0 2.0 0.00 1.64 0.21 64 1013.8
20260506171549 55 318 0.0 3.0 0.00 1.64 0.21 61 1013.9
20260506171047 55 89 0.0 3.0 0.00 1.64 0.21 60 1013.9
20260506170545 55 92 0.0 3.0 0.00 1.64 0.21 60 1013.9
20260506170057 55 167 0.0 2.0 0.00 1.64 0.21 60 1013.9
20260506165543 55 22 0.0 2.0 0.00 1.64 0.21 64 1013.9
20260506165042 55 339 0.0 2.0 0.00 1.64 0.21 65 1014.0
20260506164542 55 82 0.0 1.0 0.00 1.64 0.21 65 1013.9
20260506164045 55 329 0.0 2.0 0.00 1.64 0.21 69 1013.9
20260506163544 55 338 0.0 4.0 0.00 1.64 0.21 68 1013.9
20260506163057 54 325 0.0 4.0 0.00 1.64 0.21 63 1013.8
20260506162542 55 350 1.0 4.0 0.00 1.64 0.21 64 1013.7
20260506162041 54 355 0.0 2.0 0.00 1.64 0.21 65 1013.6
20260506161537 54 89 0.0 2.0 0.00 1.64 0.21 71 1013.6
20260506161040 54 72 0.0 2.0 0.00 1.64 0.21 73 1013.6
20260506160536 54 83 0.0 2.0 0.00 1.64 0.21 71 1013.7
20260506160036 54 203 0.0 2.0 0.00 1.64 0.21 68 1013.7
20260506155534 54 259 0.0 2.0 0.00 1.64 0.21 72 1013.6
20260506155033 53 80 0.0 2.0 0.00 1.64 0.21 76 1013.6
20260506154537 53 300 0.0 2.0 0.00 1.64 0.21 77 1013.7
20260506154033 52 290 0.0 3.0 0.00 1.64 0.21 77 1013.5
20260506153531 52 340 0.0 3.0 0.00 1.64 0.21 76 1013.6
20260506153031 52 307 0.0 2.0 0.00 1.64 0.21 76 1013.4
20260506152530 52 355 0.0 0.0 0.00 1.64 0.21 77 1013.4
20260506152030 52 326 0.0 2.0 0.00 1.64 0.21 75 1013.6
20260506151530 52 313 0.0 2.0 0.00 1.64 0.21 76 1013.6
20260506151030 52 319 0.0 2.0 0.00 1.64 0.21 80 1013.8
20260506150528 51 316 0.0 2.0 0.00 1.64 0.21 74 1013.7
20260506150028 51 340 0.0 2.0 0.00 1.64 0.21 74 1013.7
20260506145529 51 300 0.0 2.0 0.00 1.64 0.21 74 1013.7
20260506145024 51 313 0.0 2.0 0.00 1.64 0.21 76 1013.7
20260506144525 51 355 0.0 2.0 0.00 1.64 0.21 77 1013.7
20260506144022 50 319 0.0 2.0 0.00 1.64 0.21 78 1013.4
20260506143524 50 309 0.0 2.0 0.00 1.64 0.21 79 1013.1
20260506143020 50 55 0.0 2.0 0.00 1.64 0.21 79 1013.1
20260506142519 50 324 0.0 2.0 0.00 1.64 0.21 78 1013.2
20260506142019 50 323 0.0 2.0 0.00 1.64 0.21 79 1013.1
20260506141518 50 343 0.0 2.0 0.00 1.64 0.21 80 1013.2
20260506141017 50 337 0.0 2.0 0.00 1.64 0.21 80 1013.1
20260506140518 49 355 0.0 2.0 0.00 1.64 0.21 81 1012.9
20260506140014 49 331 0.0 2.0 0.00 1.64 0.21 80 1012.5
20260506135513 49 348 0.0 2.0 0.00 1.64 0.21 79 1012.5
20260506135013 49 328 0.0 2.0 0.00 1.64 0.21 80 1012.5
20260506134513 49 331 0.0 2.0 0.00 1.64 0.21 80 1012.3
20260506134013 49 5 0.0 2.0 0.00 1.64 0.21 82 1012.2
20260506133513 49 74 0.0 2.0 0.00 1.64 0.21 83 1012.1
20260506133009 48 5 0.0 2.0 0.00 1.64 0.21 83 1012.1
20260506132508 48 30 0.0 2.0 0.00 1.64 0.21 83 1012.3
20260506132007 48 336 0.0 2.0 0.00 1.64 0.21 84 1012.3
20260506131513 48 336 0.0 2.0 0.00 1.64 0.21 86 1012.5
20260506131007 47 313 0.0 2.0 0.00 1.64 0.21 85 1012.6
20260506130509 48 300 0.0 2.0 0.00 1.64 0.21 89 1012.5
20260506130006 47 327 0.0 2.0 0.00 1.64 0.21 89 1012.5
20260506125505 47 336 0.0 2.0 0.00 1.64 0.21 89 1012.6
20260506125003 47 336 0.0 0.0 0.00 1.64 0.21 90 1012.5
20260506124504 47 327 0.0 1.0 0.00 1.64 0.21 91 1012.5
20260506124003 46 327 0.0 1.0 0.00 1.64 0.21 91 1012.4
20260506123504 46 311 0.0 0.0 0.00 1.64 0.21 91 1012.7
20260506123002 46 317 0.0 1.0 0.00 1.64 0.21 92 1012.4
20260506122601 46 317 0.0 1.0 0.00 1.64 0.21 91 1012.4
20260506122100 46 311 0.0 1.0 0.00 1.64 0.21 92 1012.5
20260506121559 46 308 0.0 0.0 0.00 1.64 0.21 92 1012.5
20260506121058 46 308 0.0 0.0 0.00 1.64 0.21 92 1012.5
20260506120557 46 307 0.0 0.0 0.00 1.64 0.21 92 1012.2
20260506120100 46 307 0.0 2.0 0.00 1.64 0.21 92 1012.1
20260506115556 45 307 0.0 2.0 0.00 1.64 0.21 93 1011.7
20260506115055 45 312 0.0 0.0 0.00 1.64 0.21 93 1011.7
20260506114605 45 312 0.0 0.0 0.00 1.64 0.21 93 1011.7
20260506114058 45 312 0.0 0.0 0.00 1.64 0.21 94 1011.7
20260506113553 45 312 0.0 1.0 0.00 1.64 0.21 94 1011.5
20260506113054 45 312 0.0 1.0 0.00 1.64 0.21 93 1011.3
20260506112553 45 315 0.0 1.0 0.00 1.64 0.21 94 1011.2
20260506112052 45 315 0.0 1.0 0.00 1.64 0.21 94 1011.3
20260506111551 45 321 0.0 0.0 0.00 1.64 0.21 93 1011.0
20260506111050 45 321 0.0 0.0 0.00 1.64 0.21 92 1010.7
20260506110550 45 321 0.0 2.0 0.00 1.64 0.21 92 1010.6
20260506110056 45 321 0.0 2.0 0.00 1.64 0.21 92 1010.5
20260506105548 45 322 0.0 0.0 0.00 1.65 0.21 92 1010.4
20260506105048 45 322 0.0 2.0 0.00 1.65 0.21 92 1010.2
20260506104548 45 327 0.0 2.0 0.00 1.65 0.21 91 1010.2
20260506104047 45 329 0.0 0.0 0.00 1.65 0.21 91 1010.1
20260506103552 45 329 0.0 2.0 0.00 1.65 0.21 91 1010.0
20260506103048 45 329 0.0 2.0 0.00 1.65 0.21 90 1009.8
20260506102547 45 326 0.0 0.0 0.00 1.65 0.21 90 1009.8
20260506102047 45 326 0.0 2.0 0.00 1.65 0.21 90 1009.8
20260506101547 45 325 0.0 2.0 0.00 1.65 0.21 90 1010.0
20260506101049 45 324 0.0 2.0 0.00 1.65 0.21 90 1010.0
20260506100546 45 324 0.0 1.0 0.00 1.65 0.21 91 1010.0
20260506100047 45 322 0.0 2.0 0.00 1.65 0.21 91 1010.3
20260506095549 45 346 0.0 2.0 0.00 1.73 0.21 91 1010.3
20260506095046 44 347 0.0 2.0 0.01 1.73 0.21 91 1010.3
20260506094605 44 319 0.0 0.0 0.01 1.73 0.21 90 1010.4
20260506094044 45 326 0.0 2.0 0.01 1.73 0.21 90 1010.0
20260506093543 45 326 0.0 2.0 0.01 1.73 0.21 90 1009.8
20260506093046 45 5 0.0 2.0 0.01 1.73 0.21 90 1009.6
20260506092542 45 5 0.0 2.0 0.01 1.73 0.21 90 1009.4
20260506092042 45 5 0.0 2.0 0.01 1.73 0.21 90 1009.4
20260506091542 45 44 0.0 1.0 0.01 1.73 0.21 90 1009.0
20260506091041 45 9 0.0 1.0 0.01 1.73 0.21 90 1009.4
20260506090541 45 360 0.0 2.0 0.01 1.73 0.21 91 1009.5
20260506090041 45 346 0.0 2.0 0.01 1.73 0.21 90 1009.6
20260506085541 45 343 0.0 2.0 0.00 1.95 0.20 91 1009.8
20260506085041 45 19 0.0 2.0 0.00 1.95 0.20 91 1009.3
20260506084541 44 61 0.0 2.0 0.00 1.95 0.20 90 1009.5
20260506084044 45 338 0.0 2.0 0.00 1.95 0.20 90 1009.7
20260506083540 45 333 0.0 2.0 0.00 1.95 0.20 90 1009.7
20260506083038 45 355 0.0 2.0 0.00 1.95 0.20 91 1009.4
20260506082537 45 334 0.0 2.0 0.00 1.95 0.20 92 1009.3
20260506082036 45 330 0.0 2.0 0.00 1.95 0.20 92 1008.9
20260506081538 45 329 0.0 2.0 0.00 1.95 0.20 92 1009.2
20260506081036 45 321 0.0 2.0 0.01 1.95 0.20 92 1009.3
20260506080536 45 26 0.0 2.0 0.01 1.95 0.20 92 1008.5
20260506073041 45 355 0.0 2.0 0.02 2.22 0.20 91 1009.2
20260506072533 46 355 0.0 3.0 0.03 2.22 0.20 92 1008.9
20260506072037 46 355 0.0 3.0 0.03 2.22 0.20 92 1008.8
20260506071534 46 12 0.0 2.0 0.04 2.22 0.20 92 1008.5
20260506071032 45 10 0.0 2.0 0.03 2.21 0.19 91 1008.7
20260506070531 46 40 0.0 2.0 0.04 2.21 0.19 91 1008.8
20260506062025 47 333 0.0 2.0 0.04 2.19 0.17 94 1008.9
20260506061532 47 355 0.0 2.0 0.04 2.18 0.16 94 1008.9
20260506061028 48 348 0.0 2.0 0.04 2.18 0.16 94 1008.9
20260506060525 47 9 0.0 2.0 0.04 2.17 0.15 94 1008.7
20260506051017 48 80 0.0 3.0 0.08 2.14 0.12 95 1007.5
20260506050518 48 360 0.0 2.0 0.09 2.13 0.11 95 1007.9
20260506045013 48 355 0.0 2.0 0.13 2.11 0.09 95 1007.9
20260506044513 48 13 0.0 2.0 0.15 2.11 0.09 95 1007.7
20260506044016 48 349 0.0 2.0 0.13 2.09 0.07 95 1007.7
20260506043511 48 336 0.0 2.0 0.15 2.08 0.06 95 1007.2